Regional Weather Roundup
Issued by NWS Newport/Morehead, NC

Current Version | Previous Version | Graphics & Text | Print | Product List | Glossary On
Versions: 1 2 3 4 5 6 7 8 9 10 11 12 13 14 15 16 17 18 19 20 21 22 23 24 25 26 27 28 29 30 31 32 33 34 35 36 37 38 39 40 41 42 43 44 45 46 47 48 49 50
000 ASUS42 KMHX 160825 RWRMHX WEATHER ROUNDUP FOR EASTERN NORTH CAROLINA NATIONAL WEATHER SERVICE NEWPORT/MOREHEAD CITY NC 300 AM EST MON JAN 16 2017 NOTE: "FAIR" INDICATES FEW OR NO CLOUDS BELOW 12,000 FEET WITH NO SIGNIFICANT WEATHER AND/OR OBSTRUCTIONS TO VISIBILITY NCZ015>017-031-032-045>047-102-103-160900- NORTH COAST CITY SKY/WX TMP DP RH WIND PRES REMARKS EDENTON NOT AVBL ELIZABETH CITY CLOUDY 42 36 79 N9 30.41F KITTY HAWK NOT AVBL MANTEO CLOUDY 44 36 72 NE12 30.40S $$ NCZ045>047-081-094-103-104-160900- CENTRAL COAST CITY SKY/WX TMP DP RH WIND PRES REMARKS FRISCO CLOUDY 47 41 80 VRB7G17 30.37F $$ NCZ095-097-098-100-101-160900- SOUTHERN COAST CITY SKY/WX TMP DP RH WIND PRES REMARKS BEAUFORT CLOUDY 44 39 82 NE9 30.36S CEDAR ISLAND NOT AVBL JACKSONVILLE CLOUDY 46 40 79 NE10 30.36S PINEY ISLAND CLOUDY N/A N/A N/A NE8 30.36F WILMINGTON CLOUDY 49 44 83 NE6 30.34S $$ NCZ011>013-027>030-043-044-078>080-089-090>093-098-160900- COASTAL PLAIN CITY SKY/WX TMP DP RH WIND PRES REMARKS AHOSKIE N/A 40 25 54 CALM 30.41S CLINTON CLOUDY 48 41 76 NE3 30.37R ELIZABETHTOWN CLOUDY 49 44 83 E3 30.35R GOLDSBORO CLOUDY 46 44 93 NE8 30.36R GREENVILLE CLOUDY 43 36 75 CALM 30.39S HAVELOCK MOCLDY 43 38 82 NE7 30.38S KENANSVILLE CLOUDY 46 41 81 NE3 30.37R KINSTON CLOUDY 44 40 87 NE7 30.39R NEW BERN CLOUDY 42 38 85 NE7 30.39S RICHLANDS CLOUDY 45 41 87 NE10 30.37R ROCKY MOUNT CLOUDY 45 35 68 CALM 30.39R WASHINGTON PTCLDY 41 36 83 NE5 30.39F WHITEVILLE CLOUDY 50 46 85 NE6 30.33S $$ AMZ130-135-150-152-154-156-158-170-250-252-270-ANZ085-086-088-633-658-670-160900- MARINE OBSERVATIONS STATION/POSITION TIME TEMP WIND PRES WAVE SWELL AIR SEA DIR/SP/G HT/PER HT/PER (UTC) (F) (DEG/KT/KT) (MB) (FT/S) (FT/S) CHESAPEAKE LIGHT NOT AVBL 64 E VA BEACH 0750 49 59 20/ 12/ 16 1029.1 4/11 3/11 DUCK 0800 45 44 20/ 13/ 15 1029.0 2 E DUCK 0800 44 N/A 3/10 2/11 OREGON INLET 0800 360/ 11/ 15 1028.9 13E OREGON INLT NOT AVBL HATTERAS CG 0800 46 54 20/ 17/ 19 1027.7 DIAMOND BUOY 0750 54 74 20/ 17/ 21 1027.7 4/11 3/11 CAPE LOOKOUT 0800 45 20/ 13/ 15 1027.3 BEAUFORT LAB 0800 44 49 20/ 10/ 13 1027.0 30 SE NEW RVR IN 0808 50 64 50/ 17/ 21 1027.1 30 SE NEW RVR IN 0743 64 N/A 4/ 4 2/11 27 SE WRIGHTSVLE 0808 57 70 70/ 16/ 23 1026.3 5 SE WRIGHTSVLE 0808 51 60/ 12/ 21 1027.3 225 S CAPE HAT 0750 68 71 90/ 6/ 8 1025.6 4/10 3/10 41 SE CHARLESTON 0750 69 71 90/ 2/ 4 1024.9 4/10 3/10 $$

USA.gov is the U.S. government's official web portal to all federal, state and local government web resources and services.